User: anonymous   Login
Location: Hope
(40.9110°N, 74.9680°W)
Time: 08:44:21
(UTC-05:00)
Language:

Tiangong 2 - Orbit

View from above orbital plane
View from above orbital plane
View from above satellite
View from above satellite

Ground track
Ground track

The orbit data is extracted from the following two-line orbital elements,

1 41765U 16057A   19054.00664133  .00003495  00000-0  45337-4 0  9991
2 41765  42.7845 287.7542 0007497 205.2731 298.0439 15.60747507139197
Epoch (UTC): 23 February 2019 00:09:33
Eccentricity: 0.0007497
inclination: 42.7845°
perigee height: 380 km
apogee height: 390 km
right ascension of ascending node: 287.7542°
argument of perigee: 205.2731°
revolutions per day: 15.60747507
mean anomaly at epoch: 298.0439°
orbit number at epoch: 13919

The dashed part of the orbit path shows where the satellite is in the earth's shadow,  

DLR